DW5072 Weather Reports


time (UTC)temp
C
wind
direction
speed
KPH
gust
KPH
rain 1hr
cm
rain 24hr
cm
rain mn
cm
humidity
%
barometer
mb
20190423044756 13 64 0.0 0.0 0.00 0.00 0.00 59 995.7
20190423044240 13 64 0.0 0.0 0.00 0.00 0.00 59 995.7
20190423043730 13 64 0.0 0.0 0.00 0.00 0.00 59 995.7
20190423043246 13 64 0.0 0.0 0.00 0.00 0.00 58 995.8
20190423042727 13 64 0.0 0.0 0.00 0.00 0.00 58 995.8
20190423042246 13 64 0.0 0.0 0.00 0.00 0.00 58 995.8
20190423041738 13 64 0.0 1.6 0.00 0.00 0.00 58 995.8
20190423041230 13 64 0.0 1.6 0.00 0.00 0.00 58 995.8
20190423040744 13 64 0.0 1.6 0.00 0.00 0.00 59 995.8
20190423040254 13 64 0.0 1.6 0.00 0.00 0.00 58 995.7
20190423040251 13 64 0.0 0.0 0.00 0.00 0.00 58 996.3
20190423035738 13 64 0.0 1.6 0.00 0.00 0.00 58 995.8
20190423035245 13 64 0.0 1.6 0.00 0.00 0.00 58 995.8
20190423034727 13 64 0.0 3.2 0.00 0.00 0.00 58 995.8
20190423034251 13 64 0.0 3.2 0.00 0.00 0.00 58 995.8
20190423033751 13 64 0.0 3.2 0.00 0.00 0.00 58 995.7
20190423033246 13 64 0.0 3.2 0.00 0.00 0.00 59 995.7
20190423032751 13 64 0.0 3.2 0.00 0.00 0.00 59 995.8
20190423032244 13 64 0.0 1.6 0.00 0.00 0.00 60 995.7
20190423031729 13 64 0.0 1.6 0.00 0.00 0.00 60 995.8
20190423031245 13 64 0.0 4.8 0.00 0.00 0.00 60 995.8
20190423030739 13 64 0.0 4.8 0.00 0.00 0.00 61 995.8
20190423030245 13 64 1.6 3.2 0.00 0.00 0.00 63 995.8
20190423025738 13 64 0.0 3.2 0.00 0.00 0.00 62 995.8
20190423025249 13 64 0.0 3.2 0.00 0.00 0.00 58 995.8
20190423024725 13 64 0.0 3.2 0.00 0.00 0.00 60 995.7
20190423024231 13 64 0.0 3.2 0.00 0.00 0.00 59 995.7
20190423023746 13 64 0.0 3.2 0.00 0.00 0.00 60 995.9
20190423023249 13 64 0.0 0.0 0.00 0.00 0.00 60 996.0
20190423023031 13 64 0.0 0.0 0.00 0.00 0.00 59 996.6
20190423022745 13 64 0.0 1.6 0.00 0.00 0.00 59 995.9
20190423022225 13 64 0.0 1.6 0.00 0.00 0.00 59 996.1
20190423021725 13 64 0.0 1.6 0.00 0.00 0.00 60 996.1
20190423021232 13 64 0.0 1.6 0.00 0.00 0.00 60 996.2
20190423020729 13 64 0.0 1.6 0.00 0.00 0.00 61 996.2
20190423020237 13 64 0.0 1.6 0.00 0.00 0.00 61 996.2
20190423015745 13 64 0.0 1.6 0.00 0.00 0.00 63 996.2
20190423015256 13 64 0.0 0.0 0.00 0.00 0.00 64 996.4
20190423014726 13 64 0.0 1.6 0.00 0.00 0.00 63 996.3
20190423014234 13 64 0.0 3.2 0.00 0.00 0.00 63 996.2
20190423013740 13 64 0.0 4.8 0.00 0.00 0.00 65 996.2
20190423013255 13 64 1.6 4.8 0.00 0.00 0.00 66 996.1
20190423012732 13 64 1.6 4.8 0.00 0.00 0.00 66 996.2
20190423012234 13 114 0.0 3.2 0.00 0.00 0.00 64 996.2
20190423011726 13 114 0.0 3.2 0.00 0.00 0.00 65 996.1
20190423011254 13 114 0.0 3.2 0.00 0.00 0.00 64 996.2
20190423010750 13 114 0.0 3.2 0.00 0.00 0.00 65 996.0
20190423010247 13 114 0.0 3.2 0.00 0.00 0.00 66 996.0
20190423005730 13 114 0.0 3.2 0.00 0.00 0.00 65 996.1
20190423005228 13 114 0.0 1.6 0.00 0.00 0.00 65 996.0
20190423004744 13 114 0.0 1.6 0.00 0.00 0.00 65 996.0
20190423004232 13 114 0.0 1.6 0.00 0.00 0.00 65 996.1
20190423003737 13 114 0.0 3.2 0.00 0.00 0.00 64 996.1
20190423003244 13 114 0.0 3.2 0.00 0.00 0.00 66 996.0
20190423002741 14 114 0.0 3.2 0.00 0.00 0.00 63 996.0
20190423002237 14 114 0.0 3.2 0.00 0.00 0.00 63 996.0
20190423001727 14 114 0.0 3.2 0.00 0.00 0.00 61 996.0
20190423001248 14 114 0.0 3.2 0.00 0.00 0.00 61 996.0
20190423000750 15 114 1.6 3.2 0.00 0.00 0.00 62 996.1
20190423000245 15 114 0.0 3.2 0.00 0.00 0.00 61 996.0
20190422235743 15 114 0.0 3.2 0.00 0.00 0.00 60 996.2
20190422235246 15 114 0.0 0.0 0.00 0.00 0.00 61 996.2
20190422234745 15 114 0.0 1.6 0.00 0.00 0.00 62 996.4
20190422234237 15 114 0.0 1.6 0.00 0.00 0.00 60 996.4
20190422233736 15 114 0.0 1.6 0.00 0.00 0.00 56 996.4
20190422233225 14 114 0.0 1.6 0.00 0.00 0.00 57 996.4
20190422233135 14 114 0.0 0.0 0.00 0.00 0.00 58 997.1
20190422232759 14 114 0.0 0.0 0.00 0.00 0.00 60 996.4
20190422232237 14 114 0.0 0.0 0.00 0.00 0.00 65 996.5
20190422231730 15 114 0.0 0.0 0.00 0.00 0.00 67 996.5
20190422231550 14 114 0.0 0.0 0.00 0.00 0.00 66 997.2
20190422231246 15 114 0.0 0.0 0.00 0.00 0.00 64 996.5
20190422230742 15 114 0.0 1.6 0.00 0.00 0.00 66 996.4
20190422230300 15 114 0.0 1.6 0.00 0.00 0.00 65 996.5
20190422230109 15 114 0.0 0.0 0.00 0.00 0.00 64 997.1
20190422225744 15 114 0.0 0.0 0.00 0.00 0.00 63 996.5
20190422225244 15 114 0.0 0.0 0.00 0.00 0.00 63 996.5
20190422224735 15 114 0.0 1.6 0.00 0.00 0.00 61 996.7
20190422224247 15 114 0.0 1.6 0.00 0.00 0.00 64 996.8
20190422223742 15 114 0.0 1.6 0.00 0.00 0.00 65 996.8
20190422223243 15 114 0.0 1.6 0.00 0.00 0.00 64 996.8
20190422222737 15 114 0.0 1.6 0.00 0.00 0.00 63 996.8
20190422222233 15 114 0.0 3.2 0.00 0.00 0.00 61 996.9
20190422221731 15 114 0.0 3.2 0.00 0.00 0.00 61 996.9
20190422221249 15 114 0.0 3.2 0.00 0.00 0.00 60 996.9
20190422220727 15 114 0.0 1.6 0.00 0.00 0.00 57 996.9
20190422220227 16 114 0.0 1.6 0.00 0.00 0.00 60 996.9
20190422215729 16 114 0.0 1.6 0.00 0.00 0.00 59 997.0
20190422215237 16 114 0.0 3.2 0.00 0.00 0.00 58 997.0
20190422214731 16 114 0.0 3.2 0.00 0.00 0.00 60 997.0
20190422214225 16 114 0.0 3.2 0.00 0.00 0.00 58 997.0
20190422213737 16 114 0.0 3.2 0.00 0.00 0.00 58 996.8
20190422213235 16 114 0.0 3.2 0.00 0.00 0.00 59 997.1
20190422212731 16 114 0.0 1.6 0.00 0.00 0.00 58 997.0
20190422212249 16 114 0.0 1.6 0.00 0.00 0.00 57 997.0
20190422211741 16 114 0.0 1.6 0.00 0.00 0.00 57 997.1
20190422211254 16 114 0.0 3.2 0.00 0.00 0.00 57 997.1
20190422210744 16 114 0.0 3.2 0.00 0.00 0.00 57 997.1
20190422210242 16 114 0.0 3.2 0.00 0.00 0.00 56 997.2
20190422205731 16 114 0.0 3.2 0.00 0.00 0.00 55 997.2
20190422205230 16 114 0.0 3.2 0.00 0.00 0.00 55 997.2
20190422204740 16 114 1.6 3.2 0.00 0.00 0.00 54 997.3
20190422204245 17 113 0.0 1.6 0.00 0.00 0.00 55 997.3
20190422203737 17 114 0.0 1.6 0.00 0.00 0.00 53 997.4
20190422203231 17 114 0.0 3.2 0.00 0.00 0.00 53 997.7
20190422202733 17 114 0.0 3.2 0.00 0.00 0.00 56 997.8
20190422202236 17 114 0.0 3.2 0.00 0.00 0.00 54 997.8
20190422201757 17 114 0.0 3.2 0.00 0.00 0.00 54 997.8
20190422201238 17 114 1.6 3.2 0.00 0.00 0.00 53 997.8
20190422200739 17 114 1.6 3.2 0.00 0.00 0.00 53 997.9
20190422200259 17 114 0.0 0.0 0.00 0.00 0.00 51 997.9
20190422195732 17 114 0.0 0.0 0.00 0.00 0.00 50 998.0
20190422195240 17 114 0.0 0.0 0.00 0.00 0.00 49 998.1
20190422194724 18 114 0.0 3.2 0.00 0.00 0.00 52 998.2
20190422194239 18 114 0.0 3.2 0.00 0.00 0.00 51 998.1
20190422193736 18 114 0.0 0.0 0.00 0.00 0.00 51 998.0
20190422193238 18 114 0.0 0.0 0.00 0.00 0.00 48 998.1
20190422192747 18 114 0.0 1.6 0.00 0.00 0.00 49 998.1
20190422192231 18 114 0.0 1.6 0.00 0.00 0.00 49 998.1
20190422191738 18 114 0.0 1.6 0.00 0.00 0.00 49 998.1
20190422191241 19 114 0.0 0.0 0.00 0.00 0.00 48 998.0
20190422190730 19 114 0.0 1.6 0.00 0.00 0.00 47 998.0
20190422190252 20 114 0.0 1.6 0.00 0.00 0.00 47 998.1
20190422185739 20 114 0.0 1.6 0.00 0.00 0.00 46 998.0
20190422185234 20 114 0.0 1.6 0.00 0.00 0.00 45 998.0
20190422184744 20 114 0.0 3.2 0.00 0.00 0.00 45 998.1
20190422184246 20 114 0.0 3.2 0.00 0.00 0.00 44 998.0
20190422183747 21 114 0.0 3.2 0.00 0.00 0.00 43 998.1
20190422183242 21 114 0.0 0.0 0.00 0.00 0.00 43 998.1
20190422182737 21 114 0.0 0.0 0.00 0.00 0.00 41 998.1
20190422182252 21 114 0.0 0.0 0.00 0.00 0.00 41 998.2
20190422181751 21 114 0.0 0.0 0.00 0.00 0.00 39 998.3
20190422181248 22 114 0.0 1.6 0.00 0.00 0.00 39 998.4
20190422180723 22 114 0.0 1.6 0.00 0.00 0.00 38 998.5
20190422180247 22 114 0.0 0.0 0.00 0.00 0.00 39 998.5
20190422175747 22 114 0.0 0.0 0.00 0.00 0.00 38 998.5
20190422175241 22 114 0.0 3.2 0.00 0.00 0.00 38 998.6
20190422174738 22 114 0.0 3.2 0.00 0.00 0.00 37 998.6
20190422174231 22 114 0.0 3.2 0.00 0.00 0.00 35 998.6
20190422173748 22 114 0.0 0.0 0.00 0.00 0.00 35 998.6
20190422173251 22 114 0.0 0.0 0.00 0.00 0.00 36 999.1
20190422173238 22 114 0.0 1.6 0.00 0.00 0.00 36 998.6
20190422172743 22 114 0.0 1.6 0.00 0.00 0.00 35 998.6
20190422172248 22 114 0.0 1.6 0.00 0.00 0.00 34 998.6
20190422171744 22 114 0.0 1.6 0.00 0.00 0.00 34 998.7
20190422171233 22 114 0.0 4.8 0.00 0.00 0.00 34 998.8
20190422170739 23 107 0.0 9.7 0.00 0.00 0.00 34 998.8
20190422170239 23 98 0.0 9.7 0.00 0.00 0.00 34 998.9
20190422165748 23 141 0.0 9.7 0.00 0.00 0.00 34 998.9
20190422165243 23 5 0.0 6.4 0.00 0.00 0.00 34 999.0
20190422164735 23 159 0.0 9.7 0.00 0.00 0.00 33 999.1
20190422164242 23 107 0.0 9.7 0.00 0.00 0.00 32 999.1
20190422163737 23 102 0.0 9.7 0.00 0.00 0.00 32 999.4
20190422163224 23 76 0.0 6.4 0.00 0.00 0.00 32 999.5
20190422162729 23 106 0.0 6.4 0.00 0.00 0.00 32 999.5
20190422162252 23 125 0.0 6.4 0.00 0.00 0.00 32 999.5
20190422161733 24 130 0.0 3.2 0.00 0.00 0.00 32 999.4
20190422161234 24 95 0.0 3.2 0.00 0.00 0.00 33 999.4
20190422160745 23 90 0.0 1.6 0.00 0.00 0.00 32 999.4
20190422160245 24 113 0.0 4.8 0.00 0.00 0.00 33 999.5
20190422155739 24 86 0.0 6.4 0.00 0.00 0.00 31 999.5
20190422155246 24 126 0.0 6.4 0.00 0.00 0.00 33 999.6
20190422154735 24 148 0.0 8.0 0.00 0.00 0.00 32 999.6
20190422154246 24 98 0.0 8.0 0.00 0.00 0.00 31 999.6
20190422153748 25 127 0.0 8.0 0.00 0.00 0.00 31 999.6
20190422153244 25 124 0.0 8.0 0.00 0.00 0.00 30 999.8
20190422152748 24 114 0.0 8.0 0.00 0.00 0.00 30 999.9
20190422152241 24 83 1.6 6.4 0.00 0.00 0.00 30 1000.0
20190422151745 25 115 0.0 4.8 0.00 0.00 0.00 30 999.9
20190422151238 25 105 0.0 9.7 0.00 0.00 0.00 29 999.9
20190422150746 25 105 0.0 9.7 0.00 0.00 0.00 29 999.9
20190422150252 25 110 1.6 9.7 0.00 0.00 0.00 29 999.9
20190422145738 25 153 1.6 8.0 0.00 0.00 0.00 29 1000.0
20190422145239 25 128 0.0 9.7 0.00 0.00 0.00 28 999.9
20190422144741 25 168 1.6 9.7 0.00 0.00 0.00 27 1000.0
20190422144642 24 98 1.6 0.0 0.00 0.00 0.00 27 1000.5
20190422144236 25 49 1.6 9.7 0.00 0.00 0.00 28 1000.0
20190422143725 25 74 0.0 9.7 0.00 0.00 0.00 26 1000.1
20190422143231 25 95 1.6 11.3 0.00 0.00 0.00 27 1000.2
20190422142731 25 194 1.6 11.3 0.00 0.00 0.00 26 1000.1
20190422142248 25 115 1.6 11.3 0.00 0.00 0.00 26 1000.4
20190422141749 25 94 1.6 9.7 0.00 0.00 0.00 27 1000.4
20190422141232 25 128 1.6 16.1 0.00 0.00 0.00 26 1000.6
20190422140737 25 109 1.6 16.1 0.00 0.00 0.00 26 1000.7
20190422140241 25 129 1.6 9.7 0.00 0.00 0.00 26 1000.8
20190422135734 25 95 1.6 9.7 0.00 0.00 0.00 26 1001.0
20190422135236 26 113 0.0 9.7 0.00 0.00 0.00 26 1001.0
20190422134740 25 148 0.0 9.7 0.00 0.00 0.00 27 1001.0
20190422134228 25 150 0.0 9.7 0.00 0.00 0.00 26 1001.1
20190422133734 25 95 0.0 8.0 0.00 0.00 0.00 25 1001.2
20190422133250 25 117 0.0 8.0 0.00 0.00 0.00 25 1001.3
20190422132734 25 123 1.6 11.3 0.00 0.00 0.00 24 1001.5
20190422132232 25 178 1.6 11.3 0.00 0.00 0.00 26 1001.5
20190422131724 25 129 1.6 11.3 0.00 0.00 0.00 26 1001.5
20190422131241 25 180 1.6 11.3 0.00 0.00 0.00 26 1001.5
20190422130727 25 114 1.6 11.3 0.00 0.00 0.00 27 1001.4
20190422130234 25 126 0.0 8.0 0.00 0.00 0.00 28 1001.5
20190422125743 25 148 1.6 8.0 0.00 0.00 0.00 29 1001.7
20190422125236 25 112 1.6 9.7 0.00 0.00 0.00 30 1001.8
20190422124800 24 116 1.6 9.7 0.00 0.00 0.00 29 1002.0
20190422124221 24 122 1.6 6.4 0.00 0.00 0.00 29 1002.0
20190422123749 24 85 1.6 8.0 0.00 0.00 0.00 30 1002.1
20190422123246 24 121 0.0 9.7 0.00 0.00 0.00 33 1002.1
20190422122729 24 146 1.6 9.7 0.00 0.00 0.00 32 1002.3
20190422122242 24 114 1.6 9.7 0.00 0.00 0.00 34 1002.4
20190422121747 24 78 1.6 9.7 0.00 0.00 0.00 33 1002.5
20190422121233 24 147 1.6 9.7 0.00 0.00 0.00 30 1002.5
20190422120738 23 229 0.0 1.6 0.00 0.00 0.00 31 1002.6
20190422120225 23 101 0.0 1.6 0.00 0.00 0.00 32 1002.9
20190422120033 22 95 0.0 0.0 0.00 0.00 0.00 30 1003.3
20190422115745 22 95 0.0 1.6 0.00 0.00 0.00 31 1003.0
20190422115248 23 83 0.0 8.0 0.00 0.00 0.00 30 1003.0
20190422114744 23 252 1.6 8.0 0.00 0.00 0.00 32 1003.1
20190422114237 23 174 1.6 8.0 0.00 0.00 0.00 32 1003.1
20190422113737 23 242 1.6 6.4 0.00 0.00 0.00 32 1003.2
20190422113252 23 129 0.0 6.4 0.00 0.00 0.00 32 1003.2
20190422113132 23 129 1.6 0.0 0.00 0.00 0.00 32 1003.6
20190422112742 22 119 1.6 6.4 0.00 0.00 0.00 33 1003.3
20190422112257 23 119 1.6 6.4 0.00 0.00 0.00 33 1003.3
20190422111747 22 219 0.0 6.4 0.00 0.00 0.00 32 1003.3
20190422111243 22 132 0.0 6.4 0.00 0.00 0.00 33 1003.5
20190422110740 22 129 0.0 6.4 0.00 0.00 0.00 32 1003.6
20190422110252 22 137 0.0 6.4 0.00 0.00 0.00 33 1003.7
20190422105732 22 109 0.0 6.4 0.00 0.00 0.00 33 1003.8
20190422105236 22 96 0.0 9.7 0.00 0.00 0.00 33 1003.9
20190422104735 21 91 1.6 11.3 0.00 0.00 0.00 36 1004.0
20190422104251 21 118 1.6 11.3 0.00 0.00 0.00 35 1004.2
20190422103735 21 140 1.6 8.0 0.00 0.00 0.00 36 1004.3
20190422103240 21 115 0.0 11.3 0.00 0.00 0.00 37 1004.6
20190422102744 21 95 1.6 11.3 0.00 0.00 0.00 36 1004.7
20190422102225 20 91 1.6 8.0 0.00 0.00 0.00 37 1004.7
20190422101735 20 145 0.0 8.0 0.00 0.00 0.00 38 1004.8
20190422101228 20 71 1.6 8.0 0.00 0.00 0.00 37 1004.9
20190422100741 20 84 1.6 8.0 0.00 0.00 0.00 37 1005.0
20190422100236 21 115 1.6 9.7 0.00 0.00 0.00 36 1005.1
20190422095757 21 114 1.6 9.7 0.00 0.00 0.00 37 1005.1
20190422095223 21 78 1.6 8.0 0.00 0.00 0.00 37 1005.2
20190422094733 21 90 1.6 8.0 0.00 0.00 0.00 37 1005.2
20190422094304 21 146 1.6 6.4 0.00 0.00 0.00 37 1005.3
20190422093745 20 69 1.6 6.4 0.00 0.00 0.00 39 1005.4
20190422093232 20 150 1.6 6.4 0.00 0.00 0.00 41 1005.5
20190422092739 20 84 1.6 4.8 0.00 0.00 0.00 42 1005.5
20190422092235 20 213 0.0 8.0 0.00 0.00 0.00 42 1005.6
20190422091244 18 103 1.6 6.4 0.00 0.00 0.00 42 1005.9
20190422090737 18 136 1.6 6.4 0.00 0.00 0.00 44 1006.0
20190422090255 18 49 1.6 4.8 0.00 0.00 0.00 43 1006.0
20190422085735 18 95 1.6 4.8 0.00 0.00 0.00 44 1006.1
20190422085250 18 252 0.0 4.8 0.00 0.00 0.00 45 1006.1
20190422084728 17 197 0.0 4.8 0.00 0.00 0.00 47 1006.3
20190422084235 17 153 0.0 3.2 0.00 0.00 0.00 48 1006.3
20190422083728 16 196 0.0 6.4 0.00 0.00 0.00 50 1006.4
20190422083252 16 216 1.6 6.4 0.00 0.00 0.00 52 1006.5
20190422082734 16 248 1.6 6.4 0.00 0.00 0.00 53 1006.5
20190422082235 15 87 0.0 3.2 0.00 0.00 0.00 54 1006.6
20190422081742 15 88 0.0 3.2 0.00 0.00 0.00 54 1006.6
20190422081233 14 88 0.0 3.2 0.00 0.00 0.00 56 1006.6
20190422080758 14 87 0.0 3.2 0.00 0.00 0.00 56 1006.7
20190422080239 14 87 0.0 4.8 0.00 0.00 0.00 56 1006.8
20190422075727 13 87 0.0 4.8 0.00 0.00 0.00 61 1006.8
20190422075240 13 87 0.0 4.8 0.00 0.00 0.00 62 1007.0
20190422074737 13 81 0.0 4.8 0.00 0.00 0.00 65 1006.9
20190422074232 12 80 0.0 4.8 0.00 0.00 0.00 66 1007.1
20190422073729 11 81 0.0 4.8 0.00 0.00 0.00 70 1007.1
20190422073243 10 80 0.0 3.2 0.00 0.00 0.00 75 1007.2
20190422072745 9 81 0.0 3.2 0.00 0.00 0.00 77 1007.2
20190422072237 9 80 0.0 3.2 0.00 0.00 0.00 80 1007.4
20190422071745 8 81 0.0 1.6 0.00 0.00 0.00 82 1007.5
20190422071244 8 81 0.0 3.2 0.00 0.00 0.00 83 1007.5
20190422070754 8 81 0.0 3.2 0.00 0.00 0.00 84 1007.5
20190422070223 8 81 0.0 3.2 0.00 0.00 0.00 85 1007.5
20190422065734 7 81 0.0 1.6 0.00 0.00 0.00 86 1007.6
20190422065237 7 81 0.0 0.0 0.00 0.00 0.00 87 1007.7
20190422064744 7 80 0.0 0.0 0.00 0.00 0.00 88 1007.8
20190422064250 7 80 0.0 0.0 0.00 0.00 0.00 89 1007.8
20190422063722 7 81 0.0 0.0 0.00 0.00 0.00 88 1008.1
20190422063255 7 80 0.0 0.0 0.00 0.00 0.00 88 1008.2
20190422062908 7 81 0.0 0.0 0.00 0.00 0.00 88 1008.1
20190422062236 6 81 0.0 0.0 0.00 0.00 0.00 88 1008.1
20190422061721 6 81 0.0 0.0 0.00 0.00 0.00 88 1008.2
20190422061230 6 81 0.0 0.0 0.00 0.00 0.00 88 1008.2
20190422060732 6 80 0.0 0.0 0.00 0.00 0.00 88 1008.3
20190422060244 6 81 0.0 0.0 0.00 0.00 0.00 88 1008.3
20190422055747 6 81 0.0 0.0 0.00 0.00 0.00 87 1008.3
20190422055247 6 80 0.0 0.0 0.00 0.00 0.00 87 1008.4
20190422054750 6 81 0.0 0.0 0.00 0.00 0.00 87 1008.5
20190422054236 6 80 0.0 0.0 0.00 0.00 0.00 87 1008.5
20190422053743 6 81 0.0 0.0 0.00 0.00 0.00 86 1008.6
20190422053239 6 80 0.0 0.0 0.00 0.00 0.00 86 1008.7
20190422052800 6 81 0.0 0.0 0.00 0.00 0.00 86 1008.8
20190422052241 5 81 0.0 0.0 0.00 0.00 0.00 86 1008.7
20190422051736 5 80 0.0 0.0 0.00 0.00 0.00 86 1008.8
20190422051511 5 81 0.0 0.0 0.00 0.00 0.00 86 1009.0
20190422051232 5 81 0.0 0.0 0.00 0.00 0.00 85 1008.8
20190422050750 5 81 0.0 0.0 0.00 0.00 0.00 85 1008.8
20190422050238 5 80 0.0 0.0 0.00 0.00 0.00 85 1008.9
20190422045738 5 81 0.0 0.0 0.00 0.00 0.00 85 1008.8
20190422045249 5 81 0.0 0.0 0.00 0.00 0.00 85 1008.8